Startseite
Über Mich
AHP4
Galerie
Sehschlangen
Tourenbuch
Bookmarks
Elektronik
Bewertung
Geschichten
[Tagesmessung] [Jahreswerte] [Information]

Messwerte vom 23.06.2022

Die letzten Messwerte von 23:58:47 Uhr:
KategorieMesswert
Temperatur [°C]17
Luftdruck [mBar]995
Sonneneinstrahlung0
Wind [km/h]1 aus Südost
Niederschlag [l/m²]0
rel.Luftfeucht.64.4%
CO2 [ppm]559

Diagramme
Messwerte vom 23.06.2022
Tagesaggregation
KategorieMinimumMaximumSchnittSumme
Temperatur [°C]103722.8146
Luftdruck [mBar]9951000997.4188
Sonneneinstrahlung248141.9979
Wind [km/h]17
rF [%]19.589.953.97
Niederschlag [l/m²]0
CO2 [ppm]401787517.5
Einordnung alsVegetationstag
Sommertag
Heißer Tag

Messungen an benachbarten Tagen: Zur Jahresaggregation 2022
Tabelle aller Messwerte
UhrzeitTemperatur [°C]Luftdruck [mBar]SonneWind [km/h]RichtungRegen [l/m²]rF [%]CO2 [ppm]
00:01:48 16 997 0 0 NO 0 55.3 691
00:04:48 16 997 0 0 NO 0 56.2 694
00:07:46 16 998 0 0 O 0 56.4 697
00:10:47 16 997 0 0 NO 0 57.1 697
00:13:46 16 998 0 0 NO 0 58 702
00:16:47 16 998 0 0 NO 0 58 703
00:19:48 16 998 0 0 NO 0 58.1 706
00:22:48 15 997 0 0 NO 0 58.4 708
00:25:48 15 998 0 0 NO 0 58.6 709
00:28:47 15 997 0 0 NO 0 58.7 712
00:31:47 15 998 0 0 O 0 59 715
00:34:49 15 998 0 0 NO 0 60.1 712
00:37:47 15 997 0 0 NO 0 60.1 720
00:40:46 15 998 0 0 NO 0 60.7 720
00:43:46 15 998 0 0 N 0 60.7 715
00:46:47 15 998 0 2 NO 0 61.2 712
00:49:46 15 998 0 1 NO 0 61.8 709
00:52:45 15 997 0 0 NO 0 62.4 708
00:55:46 15 998 0 1 N 0 63.4 711
00:58:46 15 998 0 0 N 0 62.7 711
01:01:47 15 998 0 0 N 0 63.2 705
01:04:45 15 998 0 0 NO 0 63.8 715
01:07:46 15 998 0 0 O 0 64.5 718
01:10:45 15 998 0 0 O 0 64.8 720
01:13:45 15 998 0 0 O 0 65 723
01:16:44 15 998 0 3 O 0 65.2 719
01:19:46 15 998 0 0 O 0 66.9 712
01:22:49 15 998 0 2 NO 0 66.4 708
01:25:48 15 998 0 0 NO 0 66.2 707
01:28:49 15 998 0 2 NO 0 65.7 713
01:31:45 15 998 0 1 O 0 65.4 725
01:34:46 15 998 0 0 O 0 65.4 732
01:37:48 15 998 0 0 SO 0 65.3 732
01:40:46 15 998 0 0 SO 0 65.6 735
01:43:46 15 998 0 0 NW 0 66 736
01:46:46 14 998 0 0 NW 0 67.2 746
01:49:47 14 998 0 0 NW 0 67.1 746
01:52:45 14 998 0 3 N 0 68.9 736
01:55:48 14 998 0 1 NO 0 69.8 736
01:58:46 14 998 0 0 NO 0 69.9 729
02:01:45 14 998 0 0 O 0 69.5 733
02:04:45 14 998 0 0 O 0 69.7 741
02:07:45 14 998 0 0 O 0 69.3 743
02:10:47 14 998 0 0 O 0 69.1 746
02:13:47 14 998 0 0 O 0 69.5 750
02:16:45 13 998 0 0 O 0 69.5 755
02:19:48 13 998 0 0 O 0 69.8 749
02:22:46 13 998 0 0 O 0 70.4 749
02:25:45 13 998 0 0 O 0 70.8 749
02:28:48 13 998 0 0 SO 0 71.2 759
02:31:47 13 998 0 0 SO 0 71.3 761
02:34:47 13 998 0 0 SO 0 71.5 760
02:37:45 13 998 0 1 NW 0 72.6 755
02:40:49 13 998 0 0 NW 0 73.7 752
02:43:45 13 998 0 1 N 0 74.5 757
02:46:44 13 998 0 0 N 0 74.6 769
02:49:48 13 998 0 0 N 0 74.5 775
02:52:44 13 998 0 0 N 0 74.4 772
02:55:47 13 998 0 0 N 0 74 770
02:58:48 13 998 0 0 N 0 73.9 764
03:01:46 12 998 0 0 N 0 74.8 764
03:04:47 12 998 0 0 N 0 75.9 768
03:07:47 12 998 0 0 N 0 76.7 773
03:10:46 12 998 0 0 N 0 77.4 771
03:13:45 12 998 0 0 O 0 76.8 773
03:16:46 12 999 0 0 O 0 76.4 769
03:19:52 12 998 0 0 O 0 76.3 772
03:22:47 12 999 0 0 O 0 77 773
03:25:45 12 998 0 0 O 0 77.7 779
03:28:45 12 998 0 0 O 0 77.8 776
03:31:47 12 998 0 0 NO 0 79.2 784
03:34:48 12 998 0 0 NO 0 79.6 778
03:37:49 12 998 0 0 NO 0 79.4 780
03:40:48 12 998 0 0 NO 0 78.7 778
03:43:49 12 998 0 0 SO 0 78.4 780
03:46:47 12 998 0 0 SO 0 78.5 779
03:49:46 12 998 0 0 SO 0 79 785
03:52:48 12 999 0 0 SO 0 79.3 785
03:55:48 11 998 0 0 SO 0 79.2 785
03:58:47 11 998 0 0 SO 0 78.8 782
04:01:46 11 999 0 0 SO 0 78.8 781
04:04:47 11 998 0 0 SO 0 79.3 785
04:07:47 11 998 0 0 SO 0 79.7 785
04:10:48 11 998 0 0 SO 0 81 782
04:13:49 11 998 0 0 NO 0 82.2 782
04:16:48 12 998 0 0 NO 0 83.2 785
04:19:50 12 998 3 0 NO 0 82.8 785
04:22:46 12 998 4 0 NO 0 82.6 787
04:25:47 11 998 5 0 NO 0 82.5 784
04:28:47 11 999 7 0 NO 0 82.9 776
04:31:48 11 998 10 0 NO 0 83.8 767
04:34:49 11 998 14 0 NO 0 84.6 769
04:37:48 11 998 19 1 NO 0 86.2 773
04:40:47 11 998 25 2 NO 0 86.9 779
04:43:52 11 998 32 0 NO 0 86.7 784
04:46:46 11 999 41 0 NO 0 86.4 784
04:49:52 11 998 50 0 NO 0 85.7 776
04:52:48 11 999 59 0 NO 0 85.7 773
04:55:47 11 998 69 0 NO 0 85.4 779
04:58:48 11 998 78 0 NO 0 85.7 785
05:01:51 11 998 87 0 NO 0 85.8 785
05:04:49 10 999 95 0 NO 0 85.7 778
05:07:48 10 998 103 0 NO 0 85.8 775
05:10:47 10 999 110 0 NO 0 86.4 773
05:13:49 10 999 117 0 NO 0 86.3 771
05:16:49 10 999 122 0 NO 0 86.3 770
05:19:48 10 998 128 0 NO 0 86.3 772
05:22:47 11 999 133 0 NO 0 86.2 764
05:25:49 11 998 138 0 NO 0 86.3 775
05:28:50 11 999 141 0 NO 0 88.4 770
05:31:50 11 998 145 0 NO 0 89.1 772
05:34:48 11 998 148 0 NO 0 89.7 766
05:37:46 11 999 151 0 NO 0 88.9 764
05:40:49 11 999 154 0 NO 0 88 755
05:43:51 11 999 156 0 NO 0 87.8 754
05:46:50 11 999 158 0 NO 0 87.6 759
05:49:48 11 999 160 0 NO 0 87.4 764
05:52:48 11 998 162 0 NO 0 88.2 769
05:55:49 11 999 163 0 N 0 89.4 770
05:58:47 11 999 165 0 N 0 89.9 769
06:01:53 11 999 166 0 NO 0 89.5 758
06:04:49 12 998 167 0 NO 0 89 760
06:07:48 12 999 169 0 NO 0 89.2 761
06:10:47 12 999 170 0 O 0 89.9 758
06:13:49 12 998 171 0 O 0 89.3 761
06:16:49 12 998 172 0 O 0 88.8 761
06:19:48 12 998 173 0 O 0 88.7 758
06:22:46 12 999 173 0 O 0 88.6 760
06:25:49 12 999 174 0 O 0 88.5 759
06:28:51 12 999 175 0 O 0 88.4 762
06:31:48 12 999 175 0 O 0 89.1 764
06:34:48 13 999 176 0 O 0 89.3 759
06:37:48 13 999 177 0 O 0 89.5 756
06:40:49 13 999 179 0 SO 0 89.6 754
06:43:50 13 999 180 0 SO 0 89 754
06:46:49 13 999 181 0 SO 0 88.3 754
06:49:48 13 999 182 0 SO 0 88.2 749
06:52:49 13 999 169 0 O 0 88.7 745
06:55:47 14 999 169 0 O 0 89.2 628
06:58:49 14 999 170 2 SO 0 89.6 513
07:01:49 14 999 170 1 NO 0 89.4 483
07:04:46 15 999 170 0 S 0 88.6 467
07:07:48 15 999 170 1 O 0 88.1 466
07:10:46 15 999 170 0 W 0 87.1 460
07:13:47 15 999 170 0 O 0 86.2 457
07:16:48 15 999 170 2 O 0 85.9 455
07:19:50 16 1000 171 5 NO 0 84.6 450
07:22:47 16 999 170 5 O 0 84.2 447
07:25:48 16 999 171 1 NO 0 83.9 451
07:28:49 16 999 171 0 NW 0 83.7 443
07:31:49 17 999 172 2 NO 0 82.8 448
07:34:47 19 999 184 0 O 0 79.8 444
07:37:48 20 999 184 0 SO 0 75.3 436
07:40:45 20 999 184 4 O 0 73.1 430
07:43:48 20 999 183 3 NO 0 71.8 430
07:46:47 21 1000 183 0 N 0 72.3 453
07:49:48 22 999 184 5 O 0 68 453
07:52:48 23 999 183 0 SW 0 66.7 456
07:55:46 24 999 184 0 O 0 64.2 454
07:58:49 25 1000 183 0 O 0 61.4 453
08:01:49 25 1000 183 2 NO 0 58.5 419
08:04:48 25 999 184 6 SO 0 57.2 418
08:07:49 24 999 184 1 SO 0 56.8 419
08:10:50 24 999 184 1 SO 0 56.9 421
08:13:47 23 999 184 1 NO 0 57.6 424
08:16:50 22 1000 184 3 NO 0 61 427
08:19:49 21 999 184 2 SO 0 64.4 426
08:22:49 21 999 184 2 N 0 66.7 422
08:25:48 20 999 184 2 S 0 67.5 418
08:28:47 20 999 184 0 O 0 68.7 424
08:31:48 20 1000 184 0 NO 0 69.3 427
08:34:50 20 1000 185 3 NO 0 70.5 425
08:37:48 20 999 184 6 NO 0 70.1 419
08:40:49 20 1000 185 10 O 0 71 415
08:43:46 20 998 184 1 O 0 71.3 415
08:46:47 20 999 185 3 NO 0 71.6 421
08:49:49 20 999 185 5 NO 0 71.3 424
08:52:49 20 999 185 6 O 0 71.7 422
08:55:49 20 999 185 13 NO 0 71 421
08:58:47 20 999 185 5 O 0 71.4 421
09:01:49 20 1000 186 1 O 0 72.5 423
09:04:49 20 999 187 5 N 0 71.4 425
09:07:48 20 999 188 2 NO 0 71.3 427
09:10:49 20 1000 189 1 SO 0 70.6 422
09:13:47 20 999 190 3 O 0 71 416
09:16:46 20 999 191 2 S 0 70.4 420
09:19:53 21 999 192 0 NW 0 70.2 419
09:22:49 21 999 193 10 N 0 69.9 419
09:25:49 21 999 193 9 0 69 419
09:28:50 21 999 194 7 N 0 68.5 421
09:31:48 21 999 194 7 NW 0 68.5 419
09:34:49 21 999 194 1 NW 0 69.1 422
09:37:49 21 999 194 0 N 0 68.6 415
09:40:46 21 1000 194 4 0 68.2 419
09:43:48 21 999 194 2 SO 0 68.1 421
09:46:46 21 999 194 4 S 0 69.1 421
09:49:49 22 999 194 0 SW 0 68.8 419
09:52:48 22 999 194 0 SO 0 68 422
09:55:50 22 999 194 6 SO 0 66 425
09:58:49 22 999 194 3 NO 0 65.6 428
10:01:49 22 999 195 6 NO 0 65.9 423
10:04:47 22 1000 195 6 N 0 64.2 418
10:07:48 22 1000 195 6 N 0 63.7 413
10:10:49 22 999 195 1 O 0 63.9 410
10:13:46 22 999 195 3 S 0 64.1 419
10:16:47 23 999 195 3 NO 0 62.8 425
10:19:50 23 999 195 4 O 0 61.8 425
10:22:45 23 999 195 3 0 61.7 421
10:25:48 23 999 195 2 O 0 61.9 416
10:28:49 23 999 195 4 NO 0 61.3 411
10:31:49 23 999 195 2 O 0 60.7 413
10:34:46 23 999 196 5 S 0 59.6 412
10:37:47 23 999 195 1 S 0 58.7 410
10:40:47 24 998 196 4 SW 0 57.7 413
10:43:47 24 999 196 2 SO 0 58.8 421
10:46:51 24 999 196 1 NW 0 58.4 425
10:49:48 24 999 196 8 S 0 58 425
10:52:46 24 999 196 5 S 0 57.2 413
10:55:49 24 998 196 2 SO 0 57.3 415
10:58:46 24 999 196 5 S 0 56.7 419
11:01:49 25 999 196 3 SO 0 54.7 410
11:04:48 25 999 196 6 SO 0 53.9 409
11:07:46 25 999 197 3 S 0 52.6 407
11:10:49 25 998 197 2 O 0 49 406
11:13:47 25 999 197 2 W 0 49.2 408
11:16:48 25 999 198 4 S 0 49.8 404
11:19:50 25 999 198 1 O 0 50.1 407
11:22:49 25 998 198 9 SO 0 50 407
11:25:47 25 998 198 8 NO 0 49.7 412
11:28:47 26 999 198 4 S 0 49.6 410
11:31:46 26 999 199 3 S 0 45.6 412
11:34:46 26 999 199 4 N 0 44.7 405
11:37:47 26 999 199 1 SO 0 45.4 407
11:40:51 26 999 200 3 SO 0 45.2 406
11:43:46 26 999 200 3 SO 0 45.1 407
11:46:48 26 1000 200 0 O 0 44.4 407
11:49:48 27 999 201 15 SO 0 43.5 409
11:52:46 28 999 201 4 S 0 43.7 419
11:55:47 28 998 201 2 N 0 41.6 404
11:58:47 29 999 202 5 S 0 41.1 404
12:01:48 30 998 202 7 SO 0 41.5 407
12:04:48 30 998 203 6 O 0 37.1 404
12:07:49 30 998 203 2 O 0 35.7 406
12:10:48 30 998 204 7 S 0 35.7 408
12:13:47 31 999 204 7 S 0 34.9 404
12:16:47 31 998 204 3 O 0 34.3 404
12:19:50 30 999 204 8 SO 0 34.1 407
12:22:50 30 998 205 2 SW 0 35.1 404
12:25:48 30 999 205 4 O 0 34.9 406
12:28:46 30 998 206 5 S 0 34.1 407
12:31:49 31 998 206 6 S 0 35 407
12:34:48 31 998 206 4 SO 0 34.4 407
12:37:48 31 999 206 11 SO 0 33.8 404
12:40:49 31 998 207 3 SO 0 34.7 407
12:43:46 31 998 207 0 0 31.6 405
12:46:50 31 998 208 1 NW 0 31.8 404
12:49:50 31 998 208 4 SO 0 35.6 407
12:52:49 31 998 208 4 NO 0 31.5 404
12:55:47 30 999 209 1 O 0 32 404
12:58:48 30 999 210 4 NO 0 32.7 407
13:01:48 30 999 210 17 O 0 35 407
13:04:48 31 998 211 3 S 0 34.7 404
13:07:49 32 998 211 3 NO 0 33.5 407
13:10:47 32 998 212 3 NO 0 33.1 404
13:13:50 32 998 212 4 NW 0 32.4 404
13:16:48 32 998 212 4 NO 0 32.3 406
13:19:51 33 998 212 10 NW 0 30.4 404
13:22:48 33 998 212 3 NO 0 31.1 404
13:25:47 33 998 213 5 SO 0 30.7 407
13:28:50 34 998 214 10 SO 0 29.4 407
13:31:48 34 998 213 7 SO 0 29 407
13:34:48 34 998 214 5 SO 0 28.7 407
13:37:48 34 998 214 10 O 0 29.3 404
13:40:46 35 998 214 7 S 0 29.4 407
13:43:46 35 998 215 7 SO 0 28.1 404
13:46:48 35 999 218 6 SO 0 27.2 407
13:49:49 34 998 220 3 SO 0 27.9 404
13:52:47 33 998 222 5 S 0 29 407
13:55:48 34 998 224 4 SO 0 28.3 407
13:58:48 34 997 225 7 O 0 28.2 404
14:01:48 34 998 226 6 S 0 27.4 404
14:04:47 34 998 228 6 S 0 28.4 404
14:07:48 35 998 229 8 SW 0 27.6 406
14:10:47 34 998 229 6 O 0 26.7 407
14:13:47 33 998 230 2 O 0 29 401
14:16:46 34 998 234 6 S 0 29.5 404
14:19:47 34 999 237 4 O 0 25.2 406
14:22:49 33 998 238 4 NO 0 26.7 404
14:25:49 33 997 239 6 O 0 28.1 407
14:28:49 34 998 239 7 SO 0 29 406
14:31:50 33 998 240 2 NO 0 25.5 406
14:34:49 33 998 240 5 SO 0 28.1 407
14:37:49 34 998 241 6 SO 0 28.9 404
14:40:48 34 997 241 9 S 0 25.6 404
14:43:48 34 998 241 3 NO 0 22 407
14:46:47 34 998 242 7 S 0 23.8 404
14:49:46 34 998 242 9 S 0 25 407
14:52:48 34 998 242 2 SO 0 26.6 406
14:55:46 34 997 243 3 N 0 23.8 407
14:58:48 34 997 243 8 SO 0 24.7 407
15:01:48 35 998 243 2 S 0 25.5 407
15:04:47 34 997 244 2 O 0 26 406
15:07:48 34 998 244 2 NO 0 23.8 406
15:10:46 34 997 244 9 N 0 23.6 403
15:13:49 33 998 244 2 N 0 26.1 403
15:16:47 33 997 244 10 S 0 26 407
15:19:48 33 997 244 7 NO 0 24.4 403
15:22:50 33 997 245 2 NW 0 23.9 406
15:25:49 33 997 245 1 SO 0 24.8 407
15:28:46 33 997 245 3 O 0 26.7 406
15:31:47 33 997 245 5 SO 0 28.2 407
15:34:49 34 996 245 4 NO 0 25.5 407
15:37:48 33 998 245 0 NW 0 26 404
15:40:46 33 997 245 7 N 0 26.6 404
15:43:46 33 997 245 3 O 0 25.9 407
15:46:47 33 997 246 0 NW 0 26.9 406
15:49:48 33 997 246 3 S 0 27.4 404
15:52:49 33 998 246 1 NW 0 28.2 408
15:55:46 33 997 246 9 N 0 27.6 404
15:58:47 32 997 246 4 N 0 26 403
16:01:48 32 997 246 12 S 0 27 407
16:04:50 34 997 246 6 S 0 27.8 404
16:07:49 34 996 246 3 SO 0 26.6 404
16:10:47 34 997 246 8 N 0 24.1 406
16:13:47 34 997 246 4 S 0 23.6 404
16:16:47 34 997 247 6 NO 0 24.6 407
16:19:48 34 997 247 8 N 0 24.8 406
16:22:48 33 997 247 7 N 0 25.6 407
16:25:47 34 997 247 4 SW 0 26.6 406
16:28:48 35 997 247 5 S 0 25.4 403
16:31:49 36 997 247 2 NO 0 25.2 406
16:34:48 35 996 247 3 O 0 22.2 407
16:37:47 34 996 247 6 SO 0 22.6 403
16:40:47 34 997 247 4 O 0 26.6 406
16:43:48 34 996 247 4 SO 0 24.9 407
16:46:46 34 996 247 2 O 0 24.6 404
16:49:46 35 996 247 3 O 0 24.4 406
16:52:48 35 996 247 2 SO 0 23.8 407
16:55:50 36 996 247 5 O 0 22.8 404
16:58:51 36 996 247 2 SW 0 22.8 406
17:01:48 36 997 247 5 O 0 23.6 406
17:04:49 37 996 247 5 SO 0 23.2 407
17:07:46 37 996 247 7 O 0 19.5 404
17:10:47 36 996 247 5 O 0 20.1 405
17:13:49 36 996 247 2 NO 0 23.5 407
17:16:47 35 996 247 4 O 0 23 404
17:19:48 35 997 247 3 NW 0 22 407
17:22:51 35 996 247 1 SO 0 23.6 407
17:25:47 35 996 247 3 N 0 23.5 405
17:28:47 35 996 247 4 SO 0 22.4 406
17:31:47 36 995 247 3 SO 0 23.5 406
17:34:45 36 996 247 3 O 0 23.2 406
17:37:47 36 996 247 4 SO 0 22.4 404
17:40:49 37 996 247 2 O 0 22.9 404
17:43:50 37 996 247 7 SO 0 22.1 405
17:46:48 37 996 248 4 O 0 22.2 406
17:49:46 37 996 247 4 O 0 22.4 407
17:52:49 36 996 247 4 O 0 21.2 406
17:55:45 36 996 247 2 O 0 21.4 407
17:58:50 37 995 248 3 SO 0 22.6 406
18:01:47 37 995 247 2 N 0 22.9 404
18:04:49 37 996 247 4 S 0 22.5 407
18:07:48 36 996 247 6 0 21.5 406
18:10:47 36 996 247 3 S 0 21.4 406
18:13:46 36 995 247 3 O 0 22.7 406
18:16:48 37 995 248 2 O 0 22 407
18:19:47 36 995 247 5 O 0 21.3 401
18:22:46 36 995 248 1 S 0 20.7 404
18:25:49 36 995 247 2 N 0 22.4 404
18:28:51 36 996 247 1 NW 0 22.8 406
18:31:48 36 995 247 1 S 0 22.5 403
18:34:49 36 996 247 2 SO 0 21.4 407
18:37:46 36 996 247 1 O 0 21.1 404
18:40:46 36 995 247 0 O 0 21.5 406
18:43:47 36 996 247 5 S 0 22 404
18:46:46 35 995 247 5 NO 0 21.4 402
18:49:49 34 995 247 2 SO 0 22.8 406
18:52:49 33 996 247 2 NW 0 24 404
18:55:47 32 995 243 2 O 0 25.2 407
18:58:48 30 996 225 0 O 0 26.8 407
19:01:49 30 996 213 4 S 0 28.6 407
19:04:50 29 995 219 3 NW 0 29.7 404
19:07:49 29 996 213 2 O 0 29.9 406
19:10:48 29 995 205 1 SW 0 30.5 407
19:13:47 29 995 204 0 O 0 31.2 404
19:16:47 28 996 203 4 O 0 31.7 406
19:19:50 28 996 202 2 NW 0 32.4 406
19:22:50 28 995 202 2 SO 0 33.9 407
19:25:47 28 995 214 5 NO 0 33.8 406
19:28:48 28 995 232 2 W 0 33.6 407
19:31:47 28 995 223 1 SO 0 33 406
19:34:47 27 995 198 2 O 0 34.4 407
19:37:49 27 995 202 1 NW 0 34.4 406
19:40:47 27 995 201 0 O 0 34.4 407
19:43:48 27 995 197 2 N 0 34.8 407
19:46:46 27 995 195 1 N 0 35.3 406
19:49:48 27 995 194 0 NO 0 35.7 404
19:52:47 27 995 193 0 NW 0 35.9 404
19:55:49 26 996 192 0 NO 0 36.7 404
19:58:48 26 995 191 0 O 0 37.6 404
20:01:46 26 995 190 1 N 0 37.8 407
20:04:48 26 996 189 0 O 0 38.7 407
20:07:48 26 995 189 0 S 0 39.2 407
20:10:47 26 995 188 0 O 0 39.6 406
20:13:48 26 996 187 0 SO 0 39.8 406
20:16:47 25 996 185 0 SO 0 41.1 406
20:19:49 25 995 184 0 SO 0 43.3 403
20:22:47 25 995 183 0 N 0 43.8 404
20:25:50 25 995 181 0 SO 0 45 406
20:28:51 25 995 180 0 SO 0 44.3 403
20:31:49 25 995 178 0 SO 0 43.9 407
20:34:49 24 995 177 0 SO 0 44.1 407
20:37:47 24 995 175 0 SO 0 44.3 407
20:40:47 24 996 173 0 SO 0 44.8 407
20:43:50 24 996 171 0 NW 0 45.4 406
20:46:48 24 996 169 0 NW 0 46.1 407
20:49:48 24 995 167 0 N 0 46.8 406
20:52:47 24 996 164 0 NO 0 48.1 407
20:55:49 24 995 161 0 NW 0 48.2 407
20:58:46 23 995 159 0 NW 0 47.5 404
21:01:49 23 995 156 0 NW 0 47.5 406
21:04:49 23 995 152 0 NW 0 48.3 406
21:07:50 23 995 148 0 NW 0 48.2 407
21:10:47 23 995 144 0 NW 0 48.1 407
21:13:48 23 995 140 0 NW 0 48.6 406
21:16:50 23 995 135 0 NW 0 48.9 404
21:19:49 23 996 130 0 NW 0 49.4 404
21:22:48 23 995 124 0 NW 0 49.8 404
21:25:49 22 995 118 0 NW 0 50.3 404
21:28:48 22 995 111 0 NW 0 50.6 407
21:31:51 22 995 104 0 NW 0 50.9 404
21:34:49 22 996 96 0 NW 0 51.3 403
21:37:47 22 995 88 0 NW 0 51.7 404
21:40:50 22 995 79 0 NW 0 52.1 404
21:43:48 22 995 70 0 NW 0 52.5 406
21:46:48 21 995 61 0 O 0 54.2 401
21:49:47 21 995 52 0 O 0 54.7 407
21:52:46 21 995 44 0 O 0 55.3 404
21:55:46 21 995 36 0 O 0 56 404
21:58:45 21 995 32 0 O 0 56.9 401
22:01:46 21 995 25 0 O 0 57.3 407
22:04:47 21 995 20 0 O 0 57.6 405
22:07:46 20 995 15 0 O 0 57.9 404
22:10:47 20 995 10 0 O 0 57.7 404
22:13:46 20 995 8 0 O 0 57.3 406
22:16:46 20 995 5 0 O 0 57.1 406
22:19:45 20 995 4 0 O 0 57.2 407
22:22:47 20 995 3 0 O 0 57.5 404
22:25:46 20 996 0 0 O 0 57.8 412
22:28:47 19 995 0 0 O 0 58.5 424
22:31:49 19 996 0 0 O 0 58.1 433
22:34:48 19 996 0 0 O 0 57.9 445
22:37:45 19 995 0 0 O 0 58.1 454
22:40:46 19 995 0 0 O 0 58.8 459
22:43:46 19 995 0 0 O 0 59.7 471
22:46:48 19 995 0 0 O 0 60.8 480
22:49:47 19 995 0 0 O 0 61.2 491
22:52:45 19 995 0 0 O 0 61.7 497
22:55:47 19 995 0 0 NO 0 62.4 506
22:58:47 19 995 0 0 SO 0 62.3 509
23:01:46 18 995 0 0 SO 0 62.3 521
23:04:48 18 995 0 0 SO 0 62.3 529
23:07:47 18 995 0 0 SO 0 62.6 541
23:10:48 18 995 0 0 SO 0 63.1 544
23:13:46 18 995 0 0 SO 0 63.6 544
23:16:47 18 995 0 0 SO 0 63.4 538
23:19:47 18 995 0 0 SO 0 63.4 543
23:22:46 18 995 0 0 SO 0 63.6 544
23:25:48 18 995 0 0 SO 0 63.8 547
23:28:49 18 995 0 0 SO 0 64.4 551
23:31:46 18 995 0 0 SO 0 64.1 556
23:34:47 18 995 0 0 SO 0 64 567
23:37:47 18 995 0 0 SO 0 63.8 568
23:40:48 18 995 0 0 SO 0 63.9 564
23:43:48 18 995 0 0 SO 0 64.2 568
23:46:49 18 995 0 0 SO 0 63.8 568
23:49:48 17 995 0 0 SO 0 63.8 565
23:52:49 17 995 0 0 SO 0 63.8 567
23:55:47 17 995 0 0 SO 0 63.9 562
23:58:47 17 995 0 1 SO 0 64.4 559

Letzte Änderung : 22-Jul-2022
Copyright Jens Köhler, Wolfsburg, Obere Dorfstraße 10d